Flag for Niger Weather past 2 weeks in Niamey, Niger

Now
95 °F

Partly sunny.


Feels Like: 98 °F
Forecast: 78 / 95 °F
Wind: 7 mph from Southwest

Location: Niamey-Aero

Current Time: Jul 25, 2014 at 5:08:01 PM

Latest Report: Jul 25, 2014 at 4:00 PM


Visibility: N/A

Pressure: 29.86 "Hg

Humidity: 39%

Dew point: 66 °F

Location of NiameyLocation

Historic Weather in Niamey — Graph

°F

Niamey temperature yesterday

Maximum temperature yesterday: 93 °F (at 4:00 PM)
Minimum temperature yesterday: 77 °F (at 5:00 AM)
Average temperature yesterday: 84 °F

Past Weeks' High & Low Weather Summary

 TemperatureHumidityPressure
High99 °F (Jul 15, 3:00 PM)100% (Jul 13, 5:00 AM)30.04 "Hg (Jul 13, 5:00 AM)
Low70 °F (Jul 13, 5:00 AM)33% (Jul 15, 3:00 PM)29.77 "Hg (Jul 16, 5:00 PM)
Average86 °F64%29.91 "Hg
* Reported Jul 10 3:00 PM — Jul 25 3:00 PM, Niamey, Weather by CustomWeather, © 2014

Note: Actual official high and low records may vary slightly from our data, if they occured in-between our weather recording intervals... More about our weather records

Advertising

Niamey weather history for previous 24 hours

 ConditionsComfort  
Time TempWeatherWind HumidityBarometerVisibility
3:00 PM
Jul 25
93 °FPartly sunny.10 mph44%29.86 "HgN/A
2:00 PM93 °FPartly sunny.9 mph47%29.89 "HgN/A
1:00 PM91 °FPartly sunny.9 mph49%29.92 "HgN/A
12:00 PM90 °FPartly sunny.13 mph55%29.95 "HgN/A
11:00 AM88 °FPassing clouds.13 mph59%29.92 "HgN/A
10:00 AM86 °FPassing clouds.14 mph62%29.92 "HgN/A
9:00 AM82 °FSunny.14 mph70%29.95 "Hg10 mi
8:00 AM81 °FSunny.7 mph79%29.95 "Hg10 mi
7:00 AM79 °FSunny.9 mph84%29.92 "Hg10 mi
6:00 AM79 °FClear.8 mph84%29.89 "Hg10 mi
5:00 AM79 °FClear.6 mph89%29.89 "Hg10 mi
4:00 AM81 °FClear.7 mph84%29.89 "Hg10 mi
3:00 AM81 °FClear.6 mph79%29.89 "Hg10 mi
2:00 AM82 °FClear.5 mph74%29.92 "Hg10 mi
1:00 AM82 °FClear.6 mph74%29.92 "Hg10 mi
12:00 AM84 °FClear.5 mph70%29.92 "Hg10 mi
11:00 PM
Jul 24
84 °FClear.7 mph70%29.92 "Hg5 mi
10:00 PM86 °FClear.7 mph62%29.89 "Hg5 mi
9:00 PM86 °FClear.7 mph62%29.86 "Hg5 mi
8:00 PM88 °FClear.8 mph59%29.86 "Hg5 mi
7:00 PM90 °FPassing clouds.9 mph55%29.83 "Hg5 mi
6:00 PM91 °FScattered clouds.10 mph49%29.83 "HgN/A
5:00 PM91 °FPartly sunny.9 mph49%29.83 "HgN/A
Weather by CustomWeather, © 2014

See weather overviewHow to use our weather pages